EW8832 Weather Reports


Display with metric or nautical units.
time (UTC)temp
F
wind
direction
speed
MPH
gust
MPH
rain 1hr
in
rain 24hr
in
rain mn
in
humidity
%
barometer
mb
20260509114506 51 325 0.0 0.0 0.00 0.10 0.00 95 1008.6
20260509113006 51 325 0.0 0.0 0.00 0.10 0.00 95 1008.6
20260509111505 50 325 0.0 1.0 0.00 0.10 0.00 94 1008.4
20260509110003 51 325 0.0 1.0 0.00 0.10 0.00 94 1008.3
20260509104501 51 325 0.0 1.0 0.00 0.10 0.00 94 1008.1
20260509103100 52 325 0.0 2.0 0.00 0.10 0.00 94 1008.0
20260509101601 52 325 1.0 3.0 0.00 0.10 0.00 94 1008.0
20260509100111 52 346 1.0 3.0 0.00 0.10 0.00 94 1007.9
20260509094558 52 346 0.0 2.0 0.00 0.10 0.00 94 1008.2
20260509093058 51 346 0.0 0.0 0.00 0.10 0.00 94 1008.2
20260509091556 52 346 0.0 0.0 0.00 0.10 0.00 94 1008.3
20260509090055 52 346 0.0 0.0 0.00 0.10 0.00 94 1008.4
20260509084557 52 346 0.0 0.0 0.00 0.10 0.00 94 1008.5
20260509083051 52 346 0.0 0.0 0.00 0.10 0.00 94 1008.6
20260509081551 52 346 0.0 0.0 0.00 0.10 0.00 93 1008.7
20260509080117 53 346 0.0 0.0 0.00 0.10 0.00 93 1008.8
20260509074550 53 346 0.0 0.0 0.00 0.10 0.00 93 1008.8
20260509073137 53 346 0.0 0.0 0.00 0.10 0.00 92 1008.8
20260509071549 54 346 0.0 0.0 0.00 0.10 0.00 92 1008.9
20260509070042 55 346 0.0 1.0 0.00 0.10 0.00 92 1008.8
20260509064546 55 346 0.0 1.0 0.00 0.10 0.00 92 1008.8
20260509063039 55 346 0.0 0.0 0.00 0.10 0.00 92 1008.9
20260509061549 55 346 0.0 0.0 0.00 0.10 0.00 91 1009.0
20260509060038 56 346 0.0 1.0 0.00 0.10 0.00 90 1008.9
20260509054537 56 346 1.0 2.0 0.00 0.10 0.00 90 1009.0
20260509053034 57 346 0.0 2.0 0.00 0.10 0.10 89 1009.2
20260509051536 57 346 0.0 3.0 0.00 0.10 0.10 88 1009.2
20260509050037 58 344 1.0 5.0 0.00 0.10 0.10 88 1009.2
20260509044533 58 312 2.0 9.0 0.00 0.10 0.10 89 1009.1
20260509043041 58 284 1.0 4.0 0.00 0.10 0.10 87 1008.6
20260509041530 58 283 1.0 5.0 0.00 0.10 0.10 87 1008.4
20260509040032 59 237 3.0 7.0 0.00 0.10 0.10 87 1008.1
20260509034529 59 232 2.0 5.0 0.00 0.10 0.10 86 1007.8
20260509033028 60 232 0.0 6.0 0.00 0.10 0.10 85 1007.6
20260509031528 60 209 3.0 6.0 0.00 0.10 0.10 85 1007.2
20260509030036 60 178 4.0 10.0 0.00 0.10 0.10 85 1006.9
20260509024526 61 168 7.0 12.0 0.02 0.10 0.10 84 1006.8
20260509023027 62 192 8.0 19.0 0.05 0.10 0.10 82 1006.6
20260509021526 62 175 13.0 20.0 0.08 0.10 0.10 85 1006.4
20260509020026 62 175 11.0 28.0 0.09 0.10 0.10 82 1006.9
20260509014524 62 156 15.0 25.0 0.08 0.08 0.08 83 1007.5
20260509013042 64 292 1.0 5.0 0.06 0.06 0.06 78 1009.2
20260509011523 66 338 2.0 12.0 0.02 0.02 0.02 75 1008.4
20260509010025 67 325 1.0 4.0 0.01 0.01 0.01 70 1007.8
20260509004538 69 319 2.0 9.0 0.00 0.00 0.00 66 1008.2
20260509003024 71 350 2.0 5.0 0.00 0.00 0.00 58 1007.8
20260509001521 71 306 0.0 1.0 0.00 0.00 0.00 56 1007.1
20260509000021 72 306 0.0 1.0 0.00 0.00 0.00 56 1006.7
20260508234520 73 306 0.0 4.0 0.00 0.00 0.00 53 1006.4
20260508233020 74 320 1.0 5.0 0.00 0.00 0.00 50 1006.6
20260508231521 75 285 3.0 8.0 0.00 0.00 0.00 45 1006.5
20260508230036 76 229 4.0 7.0 0.00 0.00 0.00 47 1006.3
20260508224519 76 269 3.0 8.0 0.00 0.00 0.00 48 1006.3
20260508223022 76 221 3.0 12.0 0.00 0.00 0.00 49 1006.2
20260508221517 76 236 4.0 14.0 0.00 0.00 0.00 49 1006.4
20260508220017 76 187 4.0 16.0 0.00 0.00 0.00 49 1006.4
20260508214516 76 188 5.0 14.0 0.00 0.00 0.00 48 1006.4
20260508213013 76 235 6.0 14.0 0.00 0.00 0.00 47 1006.7
20260508211516 76 198 5.0 10.0 0.00 0.00 0.00 47 1006.7
20260508210009 76 285 4.0 10.0 0.00 0.00 0.00 48 1006.8
20260508204508 75 221 5.0 11.0 0.00 0.00 0.00 49 1007.1
20260508203005 75 188 6.0 12.0 0.00 0.00 0.00 49 1007.3
20260508201504 75 209 5.0 13.0 0.00 0.00 0.00 48 1007.5
20260508200002 75 174 6.0 13.0 0.00 0.00 0.00 51 1007.7
20260508194558 75 175 8.0 14.0 0.00 0.00 0.00 54 1008.0
20260508193104 74 200 5.0 11.0 0.00 0.00 0.00 51 1008.2
20260508184613 73 244 7.0 13.0 0.00 0.00 0.00 48 1008.7
20260508183048 73 200 5.0 10.0 0.00 0.00 0.00 50 1009.0
20260508180041 72 261 5.0 15.0 0.00 0.00 0.00 48 1009.6
20260508174538 71 234 6.0 16.0 0.00 0.00 0.00 48 1010.0
20260508173037 71 211 4.0 11.0 0.00 0.00 0.00 50 1010.2
20260508170037 70 238 6.0 13.0 0.00 0.00 0.00 52 1010.9
20260508164531 70 288 4.0 14.0 0.00 0.00 0.00 56 1011.3
20260508163025 69 219 6.0 13.0 0.00 0.00 0.00 56 1011.2
20260508160023 68 207 7.0 12.0 0.00 0.00 0.00 58 1011.9
20260508154521 67 167 7.0 18.0 0.00 0.00 0.00 57 1012.0
20260508153018 67 214 5.0 15.0 0.00 0.00 0.00 64 1012.1
20260508150019 65 205 6.0 13.0 0.00 0.00 0.00 65 1012.4
20260508144517 64 202 7.0 20.0 0.00 0.00 0.00 68 1012.6
20260508143008 63 215 9.0 17.0 0.00 0.00 0.00 70 1012.7
20260508140003 60 197 4.0 10.0 0.00 0.00 0.00 77 1012.8
20260508134601 60 249 5.0 9.0 0.00 0.00 0.00 79 1013.0
20260508133116 59 200 4.0 7.0 0.00 0.00 0.00 81 1012.9
20260508130047 56 234 2.0 6.0 0.00 0.00 0.00 82 1013.1
20260508124543 55 189 2.0 5.0 0.00 0.00 0.00 82 1013.1
20260508123056 54 215 1.0 5.0 0.00 0.00 0.00 81 1012.9
20260508120036 53 235 2.0 4.0 0.00 0.00 0.00 80 1013.0